TimeMDT,TemperatureF,Dew PointF,Humidity,Sea Level PressureIn,VisibilityMPH,Wind Direction,Wind SpeedMPH,Gust SpeedMPH,PrecipitationIn,Events,Conditions,WindDirDegrees,DateUTC
12:53 AM,51.1,18.0,27,29.69,10.0,SW,3.5,-,N/A,,Clear,230,2013-03-16 06:53:00
1:53 AM,41.0,18.0,40,29.74,10.0,ENE,3.5,-,N/A,,Clear,70,2013-03-16 07:53:00
2:53 AM,39.9,18.0,41,29.74,10.0,ENE,6.9,-,N/A,,Clear,60,2013-03-16 08:53:00
3:53 AM,37.9,18.0,45,29.73,10.0,East,4.6,-,N/A,,Clear,80,2013-03-16 09:53:00
4:53 AM,37.0,18.0,46,29.73,10.0,ENE,4.6,-,N/A,,Clear,70,2013-03-16 10:53:00
5:53 AM,35.1,18.0,50,29.76,10.0,NE,5.8,-,N/A,,Clear,50,2013-03-16 11:53:00
6:53 AM,37.0,21.0,52,29.76,10.0,ENE,4.6,-,N/A,,Clear,60,2013-03-16 12:53:00
7:53 AM,36.0,19.9,52,29.82,10.0,ENE,3.5,-,N/A,,Clear,60,2013-03-16 13:53:00
8:53 AM,48.9,25.0,39,29.77,10.0,Calm,Calm,-,N/A,,Clear,0,2013-03-16 14:53:00
9:53 AM,57.0,25.0,29,29.73,10.0,SSW,9.2,-,N/A,,Clear,200,2013-03-16 15:53:00
10:53 AM,64.9,25.0,22,29.70,10.0,WSW,16.1,-,N/A,,Clear,240,2013-03-16 16:53:00
11:53 AM,68.0,25.0,20,29.69,10.0,SW,18.4,23.0,N/A,,Clear,230,2013-03-16 17:53:00
12:53 PM,69.1,21.9,17,29.64,10.0,West,19.6,-,N/A,,Clear,280,2013-03-16 18:53:00
1:53 PM,71.1,23.0,16,29.67,10.0,WSW,20.7,-,N/A,,Clear,240,2013-03-16 19:53:00
2:53 PM,71.1,21.9,16,29.64,10.0,West,21.9,27.6,N/A,,Clear,270,2013-03-16 20:53:00
3:53 PM,69.1,23.0,18,29.64,10.0,WNW,21.9,28.8,N/A,,Overcast,290,2013-03-16 21:53:00
4:53 PM,64.9,26.1,23,29.69,10.0,WNW,16.1,24.2,0.00,,Overcast,290,2013-03-16 22:53:00
5:53 PM,61.0,30.0,31,29.73,10.0,North,15.0,23.0,N/A,,Overcast,350,2013-03-16 23:53:00
6:53 PM,60.1,27.0,28,29.71,10.0,West,3.5,-,N/A,,Clear,280,2013-03-17 00:53:00
7:53 PM,57.0,28.0,33,29.78,10.0,NW,10.4,-,N/A,,Mostly Cloudy,320,2013-03-17 01:53:00
8:53 PM,53.1,34.0,48,29.76,10.0,NNW,10.4,-,N/A,,Mostly Cloudy,330,2013-03-17 02:53:00
9:53 PM,52.0,34.0,50,29.75,10.0,WSW,16.1,24.2,0.00,Rain,Light Rain,250,2013-03-17 03:53:00
10:53 PM,46.0,35.1,66,29.70,10.0,ESE,8.1,-,0.00,,Partly Cloudy,120,2013-03-17 04:53:00
11:53 PM,45.0,35.1,68,29.68,10.0,Calm,Calm,-,N/A,,Clear,0,2013-03-17 05:53:00